Wind_Speed
27 26 26 27 28 29 29 29 30 29 29 27 25 25 25 24 24 24 24 24 25 26 25 24 24 25 25 26 26 26 26 26 26 26 26 27 27 27 28 27 27 26 26 26
29 29 30 31 31 31 31 32 32 31 31 29 28 26 26 26 26 26 25 25 25 25 26 27 27 27 27 27 28 28 29 29 29 29 29 29 29 30 30 29 29 29 28 28
31 32 32 33 31 31 32 33 33 33 32 32 31 29 28 28 28 27 26 27 27 27 27 28 28 29 30 30 30 30 31 31 32 32 31 31 32 32 32 32 32 31 31 31
34 34 35 33 33 33 33 33 33 33 33 33 33 32 31 31 31 30 30 30 31 31 30 30 30 31 32 33 32 32 33 33 34 33 33 34 34 33 34 34 34 33 32 32
37 36 36 34 34 34 34 34 33 34 34 34 33 32 32 33 34 34 33 33 33 33 33 33 33 33 33 34 34 34 34 34 35 35 36 36 35 35 35 35 34 34 33 32
38 38 37 36 35 36 36 36 35 35 35 35 34 34 33 33 34 34 35 34 35 35 36 35 36 36 36 36 36 35 35 35 36 37 37 37 37 37 36 35 34 34 33 32
38 38 38 37 36 36 37 37 37 37 36 36 36 35 34 34 35 36 36 37 37 37 39 38 38 38 38 38 38 37 36 37 37 37 38 38 37 38 37 36 35 34 33 32
38 39 39 38 37 37 37 37 37 37 37 37 38 37 36 36 37 37 38 38 39 40 40 40 40 40 39 39 40 39 39 38 38 38 39 38 38 37 37 36 35 36 34 33
38 38 39 38 38 38 38 38 38 38 38 38 38 38 38 39 39 39 40 40 40 41 41 42 41 41 41 41 40 41 41 40 40 39 38 37 37 37 36 35 35 34 34 34
38 38 38 38 38 39 39 39 38 38 38 38 39 39 40 40 40 40 40 40 40 41 41 41 41 41 41 41 41 41 40 39 38 37 37 37 37 37 37 37 35 35 35 34
38 38 39 39 39 39 39 40 39 39 39 39 39 40 40 40 39 39 39 39 39 40 40 40 40 41 41 40 40 39 39 37 37 37 36 37 37 37 38 37 36 35 34 34
36 37 38 38 38 40 40 40 40 40 40 40 40 40 40 40 40 40 39 39 40 40 40 40 40 39 40 40 39 40 39 38 38 37 37 37 37 37 38 37 35 35 35 35
36 36 37 37 38 38 39 39 40 40 41 42 41 41 41 41 41 41 40 41 42 40 39 39 39 39 39 40 39 38 38 38 38 38 38 38 38 38 36 36 36 36 35 35
34 35 36 36 37 37 37 38 39 40 40 41 42 42 42 41 41 41 41 41 41 41 41 40 39 37 37 37 37 37 37 36 37 37 37 35 35 35 35 35 34 35 34 34
32 33 33 34 35 36 37 38 38 39 39 39 40 41 41 41 40 40 40 40 40 41 41 40 38 36 36 37 37 36 36 36 35 35 35 33 34 33 33 33 33 34 35 35
30 31 32 33 34 35 36 36 37 37 37 37 38 39 39 40 40 40 40 39 39 39 38 37 36 35 35 35 35 36 35 35 34 33 33 33 33 32 32 32 32 32 32 32
28 29 30 32 33 34 34 34 35 35 35 35 35 37 37 37 38 38 37 37 37 37 36 35 34 34 34 35 35 35 34 33 33 32 32 33 33 32 31 31 31 31 31 31
27 28 29 30 31 31 32 32 32 32 32 33 34 34 34 35 35 36 35 35 35 35 35 35 34 34 33 34 35 34 33 32 31 31 32 33 32 31 30 30 30 30 30 32
26 27 28 28 28 29 29 28 29 29 30 31 31 31 32 33 33 33 33 33 33 33 33 33 33 32 32 31 31 31 31 31 30 30 30 30 30 29 29 29 30 30 30 31
25 25 25 25 26 26 25 25 25 26 26 27 28 28 29 29 29 30 30 30 30 30 30 30 30 30 29 28 29 29 29 29 28 28 28 27 27 26 27 28 29 30 30 30
22 22 22 23 23 22 22 22 22 22 22 23 24 24 24 25 26 27 27 26 26 27 27 28 28 28 28 28 28 28 28 27 28 28 28 27 28 27 27 28 28 29 29 30
20 20 19 19 19 19 19 19 19 19 19 20 21 22 22 22 23 23 24 25 25 25 26 26 26 27 27 28 28 27 28 28 28 29 28 27 27 28 28 29 30 30 30 30
17 16 17 17 16 16 16 17 17 17 18 19 20 21 21 21 21 21 22 22 23 23 24 25 25 25 26 27 26 26 27 27 27 27 27 27 27 28 29 29 30 30 30 30
15 16 16 16 15 15 15 16 17 17 18 18 19 19 20 20 20 20 19 19 20 20 21 22 22 23 24 25 25 24 25 25 26 26 26 27 27 28 28 29 29 29 29 29
15 15 15 15 14 15 15 16 16 16 16 17 17 17 17 18 18 17 18 18 18 19 19 20 20 20 21 21 22 22 22 23 24 25 27 27 28 28 28 28 28 29 29 29
15 15 15 15 15 15 16 16 16 16 17 17 17 16 16 17 17 17 17 17 17 18 18 19 19 20 20 21 21 21 22 22 24 25 26 27 27 27 27 28 28 28 28 28
15 15 15 15 15 15 16 16 16 16 17 16 16 17 17 17 16 16 16 17 17 17 18 19 19 19 20 21 21 21 22 22 23 24 25 26 26 27 27 28 28 28 28 28
Wind_Direction
255 256 257 259 261 262 265 268 271 274 276 277 276 276 274 274 273 273 272 271 272 272 271 272 272 273 272 271 271 271 270 270 270 270 272 274 276 274 275 275 275 274 274 274
257 258 259 261 262 263 265 268 270 271 273 274 273 273 273 274 274 274 274 273 273 272 271 271 273 273 272 271 271 272 271 270 271 270 271 274 277 278 278 277 277 276 274 273
258 258 260 261 263 265 266 268 270 270 271 271 271 271 270 270 273 274 274 270 271 272 272 270 272 273 271 270 269 271 271 271 272 273 273 275 276 276 277 278 278 277 274 272
260 260 261 264 264 265 267 269 270 270 270 270 271 270 269 268 270 272 272 271 271 271 270 268 269 271 271 269 269 270 271 271 271 274 274 275 277 277 278 277 277 275 274 270
261 262 263 263 265 266 267 268 270 270 269 270 270 268 267 267 268 271 272 271 271 271 271 269 269 271 271 271 269 269 270 272 274 273 274 275 276 276 276 277 276 273 271 268
262 263 263 263 264 265 266 266 268 269 268 267 267 267 267 267 267 269 270 271 272 273 273 272 271 270 271 270 269 270 271 271 273 274 275 276 276 277 276 276 274 271 269 267
262 263 264 265 265 265 265 267 268 268 268 267 266 266 267 267 267 268 269 271 272 273 274 275 274 274 272 271 272 272 274 274 273 275 277 278 277 277 275 275 273 271 270 270
263 264 265 267 268 267 267 267 267 267 267 266 266 266 266 267 267 267 269 271 273 274 274 274 274 274 274 274 273 273 274 274 275 277 277 277 277 277 275 274 274 271 268 269
263 264 266 267 268 268 268 268 267 266 266 266 267 266 266 266 267 268 270 272 273 273 274 274 274 274 274 273 273 273 272 273 274 274 275 276 276 275 275 274 274 272 270 270
264 265 266 267 267 268 269 268 268 267 267 267 267 266 266 267 268 269 270 271 272 273 273 273 273 272 272 272 272 272 272 272 272 271 273 275 276 275 275 275 273 272 271 272
265 266 266 266 267 268 268 268 268 268 268 269 269 268 267 267 268 269 271 271 271 271 272 273 273 273 273 272 272 271 271 272 272 272 271 273 274 274 274 274 274 272 270 272
266 267 267 267 268 268 269 269 269 270 269 269 270 270 269 269 269 270 271 271 272 272 272 271 271 271 270 270 270 270 270 269 269 270 270 272 272 272 272 270 271 271 271 272
266 267 268 269 269 270 270 269 270 270 270 271 271 270 270 270 270 271 271 272 273 273 273 272 270 269 269 268 268 269 269 269 268 269 270 271 271 270 268 269 269 270 270 270
268 269 269 270 270 271 272 272 271 270 271 271 271 271 272 272 272 273 274 274 274 273 273 273 272 270 269 269 269 269 271 270 269 268 268 269 270 268 266 267 268 270 270 271
268 269 271 271 272 272 273 274 273 272 271 271 271 272 273 274 274 275 275 275 274 274 274 272 271 272 271 270 269 268 268 268 268 269 268 267 266 265 266 267 268 269 270 272
271 273 273 274 275 275 275 275 274 273 272 272 272 273 274 275 275 276 276 276 275 274 274 274 272 271 271 270 270 269 269 268 268 269 267 266 265 265 267 268 269 270 271 272
275 277 277 277 278 277 277 277 276 275 274 274 274 274 275 275 275 276 276 275 274 273 271 270 269 269 269 269 270 268 268 268 266 266 265 266 264 264 266 268 269 270 272 273
279 280 281 281 280 280 280 278 277 277 277 278 277 277 277 276 277 277 276 276 274 273 271 269 268 268 270 270 269 268 267 267 265 265 265 265 265 264 264 266 267 269 273 274
282 284 285 285 284 283 282 281 280 279 279 278 278 278 278 277 276 277 277 276 274 271 269 267 266 267 267 267 268 268 268 267 264 264 265 265 264 264 265 266 267 270 273 275
285 286 286 286 287 286 284 283 283 282 280 278 279 279 280 280 279 278 277 274 272 270 267 266 266 266 265 266 269 268 266 264 266 266 266 265 264 264 266 268 269 270 270 271
290 291 290 289 288 288 288 287 286 285 283 281 283 284 284 283 282 279 276 274 273 272 270 268 267 266 266 266 268 267 264 265 268 271 269 266 266 267 267 269 270 271 271 273
293 295 295 294 292 291 292 292 290 288 286 286 287 288 289 289 287 284 279 275 273 273 272 270 268 266 266 268 269 267 264 264 267 270 269 268 268 268 269 271 272 272 273 274
298 298 299 299 297 295 294 296 297 294 291 289 289 291 292 292 290 287 283 279 276 274 273 272 270 269 268 268 270 269 267 266 267 268 268 268 269 270 271 272 273 273 273 275
298 300 302 303 300 299 301 303 303 302 299 296 294 294 295 295 294 291 287 285 283 280 278 276 274 270 269 270 269 269 268 267 267 268 269 270 271 271 272 273 272 272 273 275
300 303 305 306 304 305 306 306 306 304 300 301 302 301 300 299 298 296 293 290 288 284 280 278 276 273 271 271 270 269 268 268 268 269 271 272 272 272 274 275 276 275 275 276
303 304 306 307 307 307 308 308 307 308 305 304 305 305 305 303 300 297 295 294 292 288 284 282 280 277 274 273 272 272 273 273 273 273 274 274 275 275 276 277 278 277 277 277
300 300 302 303 306 308 310 311 311 310 310 310 308 306 306 305 303 301 299 296 293 290 287 284 282 282 281 279 276 275 276 277 277 276 276 277 278 278 278 279 279 278 278 277
Height
5850 5851 5852 5853 5854 5854 5854 5855 5855 5856 5857 5858 5858 5858 5859 5859 5860 5860 5860 5861 5861 5861 5861 5861 5861 5861 5861 5861 5861 5861 5861 5861 5861 5860 5860 5859 5859 5858 5858 5858 5857 5857 5857 5856
5843 5844 5845 5846 5847 5847 5848 5848 5848 5849 5850 5851 5851 5852 5853 5853 5853 5853 5853 5854 5854 5854 5854 5854 5854 5854 5853 5854 5854 5853 5853 5853 5853 5853 5852 5852 5852 5851 5850 5850 5849 5849 5849 5848
5835 5837 5837 5838 5839 5840 5840 5841 5841 5841 5843 5843 5844 5845 5845 5846 5846 5846 5846 5846 5846 5846 5846 5846 5845 5845 5844 5845 5845 5845 5845 5845 5844 5844 5843 5844 5843 5842 5841 5841 5841 5840 5840 5840
5827 5828 5828 5832 5831 5832 5832 5833 5833 5834 5834 5835 5836 5837 5837 5838 5837 5837 5837 5838 5838 5838 5838 5837 5837 5836 5836 5836 5836 5836 5836 5835 5835 5834 5834 5834 5833 5833 5832 5832 5831 5831 5831 5831
5817 5818 5819 5821 5822 5823 5823 5824 5825 5825 5826 5826 5827 5828 5829 5829 5829 5829 5828 5828 5828 5828 5828 5828 5827 5827 5827 5827 5826 5826 5826 5826 5826 5825 5825 5824 5824 5823 5823 5822 5820 5820 5821 5821
5807 5808 5809 5813 5813 5813 5815 5814 5816 5816 5816 5817 5817 5819 5820 5820 5820 5819 5819 5819 5818 5818 5818 5818 5817 5817 5817 5816 5816 5816 5816 5816 5816 5815 5814 5814 5814 5813 5812 5812 5811 5811 5811 5812
5798 5798 5799 5802 5803 5804 5806 5806 5806 5805 5806 5807 5808 5809 5810 5810 5810 5809 5809 5808 5808 5808 5807 5807 5807 5806 5806 5806 5806 5806 5805 5805 5805 5805 5804 5804 5803 5802 5801 5802 5802 5801 5802 5802
5788 5788 5791 5791 5792 5793 5794 5794 5794 5795 5795 5796 5797 5798 5798 5799 5799 5799 5798 5798 5797 5797 5796 5796 5795 5795 5795 5795 5795 5794 5794 5794 5794 5794 5794 5793 5793 5792 5792 5791 5791 5791 5792 5792
5778 5780 5780 5780 5781 5781 5782 5782 5783 5784 5784 5785 5786 5787 5787 5787 5788 5788 5787 5787 5786 5785 5785 5784 5784 5783 5783 5783 5783 5783 5783 5782 5782 5783 5783 5782 5782 5781 5781 5780 5780 5781 5781 5782
5767 5769 5769 5770 5770 5770 5770 5771 5771 5772 5773 5774 5774 5775 5775 5776 5776 5776 5775 5775 5774 5773 5772 5772 5772 5771 5771 5771 5771 5771 5771 5771 5770 5770 5771 5771 5770 5770 5770 5770 5769 5770 5771 5771
5756 5758 5758 5759 5759 5759 5759 5760 5760 5761 5761 5762 5762 5763 5763 5763 5763 5763 5763 5763 5762 5761 5760 5759 5758 5758 5758 5758 5758 5758 5759 5759 5758 5758 5758 5759 5759 5758 5759 5759 5759 5759 5759 5759
5746 5747 5747 5748 5748 5748 5748 5749 5749 5749 5750 5750 5750 5751 5751 5751 5751 5751 5751 5750 5750 5749 5748 5747 5746 5746 5746 5746 5746 5746 5746 5747 5747 5747 5747 5747 5747 5747 5746 5747 5747 5747 5747 5747
5736 5736 5736 5736 5737 5737 5736 5737 5737 5737 5737 5738 5738 5738 5738 5739 5739 5739 5739 5738 5737 5737 5736 5735 5734 5734 5733 5733 5733 5733 5734 5734 5734 5735 5735 5734 5734 5734 5735 5735 5735 5735 5735 5735
5725 5725 5726 5726 5726 5726 5725 5725 5725 5725 5725 5725 5725 5726 5726 5726 5726 5726 5726 5726 5725 5724 5724 5723 5722 5722 5721 5721 5721 5722 5722 5722 5722 5722 5722 5722 5722 5722 5723 5723 5724 5724 5724 5723
5716 5715 5716 5716 5715 5715 5714 5714 5713 5713 5713 5713 5713 5713 5713 5713 5713 5713 5713 5712 5712 5712 5711 5710 5710 5710 5710 5710 5709 5709 5709 5709 5709 5710 5710 5710 5711 5711 5712 5712 5712 5713 5713 5713
5707 5706 5706 5705 5705 5704 5703 5703 5702 5702 5701 5701 5701 5701 5700 5700 5700 5701 5700 5700 5699 5699 5699 5698 5697 5697 5698 5698 5698 5698 5698 5697 5698 5699 5699 5700 5700 5701 5701 5701 5701 5702 5702 5702
5698 5698 5697 5696 5694 5693 5692 5691 5691 5690 5690 5689 5689 5689 5688 5688 5688 5688 5688 5687 5687 5687 5687 5687 5686 5686 5687 5687 5687 5687 5687 5687 5688 5689 5689 5690 5690 5690 5691 5691 5691 5691 5692 5692
5689 5688 5687 5686 5684 5683 5682 5681 5680 5679 5679 5678 5678 5678 5677 5676 5676 5676 5676 5675 5675 5675 5675 5675 5675 5676 5676 5677 5677 5677 5677 5677 5678 5678 5679 5679 5679 5679 5680 5681 5681 5681 5681 5681
5681 5679 5678 5676 5675 5673 5672 5671 5670 5670 5669 5668 5668 5668 5667 5666 5666 5665 5664 5664 5664 5664 5664 5664 5665 5665 5666 5666 5666 5666 5667 5667 5668 5668 5669 5669 5669 5670 5670 5671 5672 5672 5671 5671
5673 5672 5670 5668 5667 5665 5664 5663 5662 5661 5660 5659 5659 5658 5658 5657 5656 5655 5654 5654 5653 5653 5654 5654 5654 5655 5656 5656 5657 5657 5657 5658 5659 5659 5660 5660 5660 5661 5661 5662 5662 5662 5662 5661
5667 5665 5663 5661 5660 5658 5657 5656 5655 5654 5653 5652 5651 5651 5650 5649 5647 5646 5645 5645 5644 5644 5644 5644 5645 5646 5647 5647 5648 5648 5649 5649 5650 5650 5651 5651 5651 5652 5652 5652 5652 5652 5652 5651
5662 5660 5658 5656 5655 5653 5652 5650 5649 5648 5647 5646 5645 5644 5643 5641 5640 5638 5637 5637 5636 5636 5636 5636 5636 5637 5637 5638 5639 5639 5640 5640 5641 5641 5642 5642 5642 5642 5643 5643 5642 5642 5642 5641
5657 5656 5654 5652 5651 5649 5647 5646 5644 5643 5642 5641 5639 5638 5636 5635 5633 5632 5630 5629 5628 5628 5628 5628 5628 5628 5628 5629 5630 5630 5631 5631 5631 5632 5632 5632 5632 5632 5633 5632 5632 5632 5631 5631
5654 5652 5650 5648 5647 5645 5644 5642 5640 5639 5637 5635 5634 5632 5630 5629 5627 5625 5624 5623 5622 5621 5620 5620 5620 5620 5620 5620 5621 5621 5622 5622 5622 5623 5623 5623 5622 5622 5622 5622 5622 5621 5621 5620
5650 5648 5647 5645 5643 5642 5640 5638 5636 5634 5632 5631 5629 5627 5625 5623 5621 5620 5618 5617 5616 5615 5614 5613 5613 5612 5613 5613 5613 5613 5613 5613 5614 5614 5614 5613 5613 5612 5612 5612 5611 5611 5610 5610
5647 5645 5644 5642 5640 5638 5636 5634 5632 5630 5628 5626 5624 5622 5620 5618 5616 5615 5613 5612 5610 5609 5608 5607 5606 5606 5606 5606 5606 5606 5605 5605 5605 5605 5604 5604 5603 5603 5602 5602 5601 5600 5600 5600
5644 5642 5641 5639 5637 5635 5633 5631 5629 5626 5624 5622 5620 5618 5616 5614 5612 5610 5608 5606 5605 5604 5602 5601 5600 5600 5599 5599 5598 5598 5597 5597 5597 5596 5596 5595 5594 5593 5593 5592 5591 5591 5590 5589